AEROCUBE 6A

Last updated on Sat Aug 15 2026 00:03:44 GMT+0000 (Coordinated Universal Time)

1 40045U 14033AM 26226.45699971 .00003027 00000+0 25361-3 0 9993 2 40045 97.7268 32.8258 0038455 178.8739 181.2577 14.98604068655340
UTC large
Height (km)
Speed (km/s)
/
Latitude / Longitude
Inclination (degrees)
Orbital Period (minutes)
Azimuth
Elevation
Range (km)
Doppler Factor

Next 0 passes for location: London (51.5072 / 0.1276)

No passes found over London.